Regional Weather Roundup
Issued by NWS

Home | Current Version | Previous Version | Text Only | Print | Product List | Glossary Off
Versions: 1 2 3 4 5 6 7 8 9 10 11 12 13 14 15 16 17 18 19 20 21 22 23 24 25 26 27 28 29 30 31 32 33 34 35 36 37 38 39 40 41 42 43 44 45 46 47 48 49 50

000
ASUS43 KMPX 241710
RWRMN
WEATHER ROUNDUP FOR MINNESOTA
NATIONAL WEATHER SERVICE TWIN CITIES/CHANHASSEN MN
1200 PM CDT TUE MAY 24 2016


NOTE: "FAIR" INDICATES FEW OR NO CLOUDS BELOW 12,000 FEET WITH NO
SIGNIFICANT WEATHER AND/OR OBSTRUCTIONS TO VISIBILITY. N/A MEANS
CURRENT SKY AND/OR WEATHER CONDITIONS ARE NOT AVAILABLE.

MNZ060>063-068>070-241800-
   Twin Cities Metro

CITY           SKY/WX    TMP DP  RH WIND       PRES   REMARKS
TWIN CITIES    PTSUNNY   76  62  62 NW8       29.88R
ST PAUL        PTSUNNY   76  61  59 NW9       29.88R
CRYSTAL        CLOUDY    74  60  61 NW6       29.88R
BLAINE         PTSUNNY   75  63  64 W7        29.89R
EDEN PRAIRIE   CLOUDY    77  63  61 NW9       29.88R
SOUTH ST PAUL  PTSUNNY   78  57  48 W6        29.88R
LAKE ELMO      FAIR      77  63  61 W7        29.90R
$$
MNZ001>005-007-008-013>017-022>024-027-028-241800-
   Northwest Minnesota

CITY           SKY/WX    TMP DP  RH WIND       PRES   REMARKS
BEMIDJI        SUNNY     73  48  41 S9        29.87R
HALLOCK        MOSUNNY   72  52  49 E7        29.85R
ROSEAU         CLOUDY    70  54  56 N7        29.85S
WARROAD        CLOUDY    68  54  60 NW7       29.86S
THIEF RVR FALL SUNNY     72  48  43 S6        29.87R
CROOKSTON      SUNNY     70  55  60 SW6       29.87R
FOSSTON          N/A     72  46  40 W10       29.87R
DETROIT LAKES  SUNNY     72  50  46 SE13      29.88S
MOORHEAD       SUNNY     77  46  33 CALM      29.86R
PARK RAPIDS    MOSUNNY   74  49  41 VRB5      29.88S
MAHNOMEN       FAIR      71  54  54 S8        29.87R
$$
MNZ006-009>011-018-025>026-241800-
   North Central Minnesota

CITY           SKY/WX    TMP DP  RH WIND       PRES   REMARKS
BAUDETTE       CLOUDY    72  49  44 NW9       29.85R
FLAG ISLAND    CLOUDY    64  50  59 W7        29.84R HAZE
INTL FALLS     CLOUDY    71  50  47 W8        29.85F
WASKISH        CLOUDY    73  52  46 CALM      29.85F
BIG FORK       MOSUNNY   75  52  43 SW7       29.88F
LONGVILLE      SUNNY     70  52  52 MISG      29.90F
CRANE LAKE     PTSUNNY   68  59  73 CALM      29.89F
ORR            CLOUDY    72  52  49 CALM      29.86S
COOK           CLOUDY    70  59  68 NW8       29.89R
WALKER         FAIR      70  51  50 E6        29.88S
$$
MNZ012-019>021-037-241800-
   Northeast Minnesota

CITY           SKY/WX    TMP DP  RH WIND       PRES   REMARKS
DULUTH         MOSUNNY   67  57  70 SE6       29.88R
ELY            MOSUNNY   68  55  64 NE3       29.89R
HIBBING        SUNNY     71  50  47 VRB3      29.87R
EVELETH        SUNNY     72  52  49 S3        29.89R
DULUTH HARBOR  CLOUDY    61  59  94 N5        29.87R
TWO HARBORS      N/A     72  61  68 E8        29.86R
SILVER BAY     SUNNY     70  57  64 E5        29.86R
GRAND MARAIS     N/A     57  55  93 SE5       29.84F
G MARAIS ARPRT CLOUDY    63  55  77 NE6       29.89R
$$
MNZ029>031-032-039>041-046>048-054>057-064-241800-
   West Central Minnesota

CITY           SKY/WX    TMP DP  RH WIND       PRES   REMARKS
FERGUS FALLS   SUNNY     73  55  53 E8        29.84R
WHEATON        SUNNY     79  57  47 CALM      29.86S
MORRIS         SUNNY     79  61  53 S10       29.85R
ALEXANDRIA     SUNNY     75  58  55 E6        29.89R
ELBOW LAKE     FAIR      76  56  49 S6        29.87R
WADENA         SUNNY     73  54  49 E10       29.89R
GLENWOOD       SUNNY     75  61  60 E5        29.89R
APPLETON       SUNNY     79  57  47 CALM      29.84F
BENSON         SUNNY     77  57  50 SE9       29.85F
ORTONVILLE     SUNNY     75  55  50 CALM      29.85S
MADISON        SUNNY     77  59  53 CALM      29.85S
WILLMAR        FAIR      75  63  64 E7        29.88S
$$
MNZ033>034-036-042>043-049>051-058-059-241800-
   Central Minnesota

CITY           SKY/WX    TMP DP  RH WIND       PRES   REMARKS
ST CLOUD       SUNNY     72  63  73 S3        29.88R
SAUK CENTRE    CLOUDY    71  63  76 SE5       29.89R
PAYNESVILLE    SUNNY     71  64  78 SE7       29.89S
AITKIN         SUNNY     77  46  33 CALM      29.87R
PINE RIVER     SUNNY     70  55  60 CALM      29.93S
BRAINERD       SUNNY     74  53  48 N12       29.90R
STAPLES        SUNNY     75  48  38 E7        29.89S
LONG PRAIRIE   FAIR      72  59  64 E5        29.89S
LITTLE FALLS   SUNNY     72  55  56 CALM      29.89S
LITCHFIELD     SUNNY     72  66  83 CALM      29.89S FOG
BUFFALO        CLOUDY    70  62  75 CALM      29.89S
MAPLE LAKE     CLOUDY    71  64  80 CALM      29.89F
HUTCHINSON     PTSUNNY   71  66  85 CALM      29.90S HAZE
$$
MNZ037-044-045-052-053-241800-
   East Central Minnesota

CITY           SKY/WX    TMP DP  RH WIND       PRES   REMARKS
PRINCETON      SUNNY     73  64  73 SE5       29.88S
MORA           SUNNY     73  57  56 N3        29.89R
CAMBRIDGE        N/A     73  61  64 S3        29.87R
RUSH CITY      CLOUDY    72  63  73 SW6       29.88S
MOOSE LAKE     CLOUDY    66  59  77 CALM      29.87R
HINCKLEY       CLOUDY    70  61  73 CALM      29.88R
CLOQUET        MOSUNNY   68  55  64 S5        29.88R
MCGREGOR       MOSUNNY   72  57  60 CALM      29.89R
$$
MNZ071>073-080-081-089-090-097-098-241800-
   Southwest Minnesota

CITY           SKY/WX    TMP DP  RH WIND       PRES   REMARKS
MONTEVIDEO     SUNNY     81  61  50 SE6       29.87S
GRANITE FALLS  SUNNY     79  65  61 E6        29.87S
CANBY          SUNNY     78  67  70 S8        29.86F
MARSHALL       PTSUNNY   73  63  70 SE6       29.87S
REDWOOD FALLS  SUNNY     75  64  68 SW7       29.87R
OLIVIA         SUNNY     72  63  73 S5        29.87R
PIPESTONE      SUNNY     73  63  68 S3        29.89R
WINDOM         CLOUDY    73  64  73 CALM      29.89S
WORTHINGTON    MOSUNNY   69  64  84 SW8       29.90S
JACKSON        MOSUNNY   72  61  68 SW7       29.90S
TRACY          MOSUNNY   75  64  69 CALM      29.88S
SLAYTON        MOSUNNY   73  62  70 SW7       29.90S
$$
MNZ065>067-074>077-082>085-091>093-241800-
   South Central Minnesota

CITY           SKY/WX    TMP DP  RH WIND       PRES   REMARKS
MANKATO        MOSUNNY   75  59  57 SW6       29.89S
NEW ULM        MOSUNNY   73  63  68 SW7       29.88S
ST JAMES       CLOUDY    70  59  68 CALM      29.90R
FAIRMONT       CLOUDY    73  63  68 SW8       29.90R
GLENCOE        PTSUNNY   72  68  88 NW6       29.89R
FARIBAULT      MOSUNNY   75  59  57 W6        29.90R
OWATONNA       CLOUDY    79  55  44 W9        29.90S
WASECA         CLOUDY    77  55  47 SW7       29.91S
ALBERT LEA     CLOUDY    73  57  56 S7        29.91S
$$
MNZ078>079-086>088-094>096-241800-
   Southeast Minnesota

CITY           SKY/WX    TMP DP  RH WIND       PRES   REMARKS
ROCHESTER      CLOUDY    73  63  70 SW8       29.93R
RED WING       MOSUNNY   79  61  53 SW5       29.87S
STANTON        CLOUDY    78  60  54 SW7       29.88S
DODGE CENTER   MOSUNNY   75  57  53 W10       29.92S
WINONA         PTSUNNY   73  61  64 W6        29.92R
AUSTIN         CLOUDY    72  61  68 SW8       29.92S
PRESTON        PTSUNNY   73  60  63 SW8       29.94S
$$
ABBREVIATIONS USED IN REMARKS
   TC - TEMPERATURES IN CELSIUS
  WCI - WIND CHILL INDEX
   HX - HEAT INDEX
  VSB - VISIBILITY
$$




USA.gov is the U.S. government's official web portal to all federal, state and local government web resources and services.